User: anonymous   Login
Location: Caltech
(34.1382°N, 118.1253°W)
Time: 21:35:05
(UTC-08:00)
Language:

SEDSat Delta rocket - Orbit

View from above orbital plane
View from above orbital plane
View from above satellite
View from above satellite

Ground track
Ground track

The orbit data is extracted from the following two-line orbital elements,

1 25510U 98061C   14354.92764542  .00004127  00000-0  72518-3 0   286
2 25510 031.4378 312.5961 0331952 301.7951 093.0242 14.36119657846446
Epoch (UTC): 20 December 2014 22:15:48
Eccentricity: 0.0331952
inclination: 31.4378°
perigee height: 534 km
apogee height: 1008 km
right ascension of ascending node: 312.5961°
argument of perigee: 301.7951°
revolutions per day: 14.36119657
mean anomaly at epoch: 93.0242°
orbit number at epoch: 84644

The dashed part of the orbit path shows where the satellite is in the earth's shadow,  

DLR